Printer-friendly version

IAU Minor Planet Center

Minor Planet Center

MPEC 2006-G37 : 2006 GY2

The following Minor Planet Electronic Circular may be linked-to from your own Web pages, but must not otherwise be redistributed electronically.


Read MPEC 2006-G36 Read MPEC 2006-G38


M.P.E.C. 2006-G37                                Issued 2006 Apr. 10, 15:10 UT

     The Minor Planet Electronic Circulars contain information on unusual
         minor planets and routine data on comets.  They are published
   on behalf of Commission 20 of the International Astronomical Union by the
          Minor Planet Center, Smithsonian Astrophysical Observatory,
                          Cambridge, MA 02138, U.S.A.

                  Supported in part by the Brinson Foundation
                  Supported in part by the TABASGO Foundation
             Prepared using the Tamkin Foundation Computer Network

                              MPC@CFA.HARVARD.EDU
          URL http://cfa-www.harvard.edu/iau/mpc.html  ISSN 1523-6714

                                   2006 GY2

Observations:
     K06G02Y* C2006 04 09.33747 16 10 34.87 +45 23 40.5          19.3   EG037704
     K06G02Y  C2006 04 09.34745 16 10 35.10 +45 23 47.9          19.3   EG037704
     K06G02Y  C2006 04 09.35765 16 10 35.29 +45 23 56.1          19.3   EG037704
     K06G02Y  C2006 04 09.36767 16 10 35.45 +45 24 03.6          19.0   EG037704
     K06G02Y  C2006 04 10.30868 16 11 00.96 +45 35 40.1          18.8 R EG037H36
     K06G02Y  C2006 04 10.31593 16 11 01.16 +45 35 44.9          18.8 R EG037H36
     K06G02Y  C2006 04 10.32317 16 11 01.22 +45 35 51.4          18.9 R EG037H36
     K06G02Y  C2006 04 10.33400 16 11 01.13 +45 36 00.8          19.4 R EG037850
     K06G02Y  C2006 04 10.34910 16 11 01.38 +45 36 12.0          19.6 R EG037850
     K06G02Y  C2006 04 10.43166 16 11 02.58 +45 37 12.7          19.3 R EG037850

Observer details:
704 Lincoln Laboratory ETS, New Mexico.  Observers M. Bezpalko, L. Manguso,
    D. Torres, R. Kracke, M. Blythe, H. Love, G. Spitz.  Measurers J. Stuart,
    J. Kommers.  1.0-m f/2.15 reflector + CCD.
850 Cordell-Lorenz Observatory, Sewanee.  Observers D. T. Durig, B. T. Scott.
    0.30-m f/2.5 Schmidt-Cassegrain + 765x510 CCD.
H36 Sandlot Observatory, Scranton.  Observer G. Hug.  0.30-m
    Schmidt-Cassegrain + CCD.

Orbital elements:
2006 GY2                                            PHA, Earth MOID = 0.0059 AU
Epoch 2006 Mar. 6.0 TT = JDT 2453800.5                  MPC
M 321.42640              (2000.0)            P               Q
n   0.38351304     Peri.  216.05497     -0.04823908     +0.90740716
a   1.8762151      Node    55.03586     -0.75488968     +0.24057643
e   0.4987894      Incl.   30.62517     -0.65407535     -0.34457979
P   2.57           H   19.1           G   0.15           U   9
Residuals in seconds of arc
060409 704  0.3-  0.2+    060410 H36  0.3-  0.5+    060410 850  0.1+  0.5-
060409 704  0.2+  0.2-    060410 H36  0.5+  0.4-    060410 850  0.1-  0.2+
060409 704  0.2+  0.1+    060410 H36  0.1-  0.5+
060409 704  0.1-  0.1-    060410 850  0.2-  0.3-

Ephemeris:
2006 GY2                 a,e,i = 1.88, 0.50, 31                  q = 0.9404
Date    TT    R. A. (2000) Decl.     Delta      r     Elong.  Phase     V
2006 04 05    16 08.11   +44 29.6    0.458    1.256   113.6    46.9    19.7
2006 04 07    16 09.34   +44 54.6    0.436    1.242   113.6    47.6    19.6
2006 04 09    16 10.41   +45 19.4    0.415    1.228   113.6    48.4    19.5
2006 04 11    16 11.29   +45 44.2    0.394    1.214   113.5    49.2    19.3
2006 04 13    16 11.98   +46 08.8    0.372    1.200   113.5    50.0    19.2
2006 04 15    16 12.46   +46 33.4    0.351    1.187   113.4    50.9    19.1
2006 04 17    16 12.71   +46 58.0    0.329    1.174   113.3    51.8    18.9
2006 04 19    16 12.71   +47 22.8    0.308    1.161   113.2    52.7    18.8
2006 04 21    16 12.41   +47 47.8    0.286    1.148   113.0    53.7    18.6
2006 04 23    16 11.78   +48 13.3    0.265    1.135   112.9    54.7    18.5
2006 04 25    16 10.74   +48 39.4    0.243    1.122   112.7    55.8    18.3
2006 04 27    16 09.22   +49 06.7    0.221    1.110   112.5    56.9    18.1
2006 04 29    16 07.07   +49 35.6    0.200    1.098   112.2    58.1    17.9
2006 05 01    16 04.12   +50 07.0    0.178    1.086   111.9    59.4    17.7
2006 05 03    16 00.04   +50 42.3    0.156    1.075   111.4    60.8    17.4
2006 05 05    15 54.31   +51 23.5    0.134    1.064   110.9    62.3    17.1
2006 05 07    15 45.93   +52 14.2    0.112    1.053   110.2    64.1    16.7
2006 05 09    15 32.80   +53 20.3    0.0901   1.042   109.1    66.2    16.3
2006 05 11    15 09.88   +54 51.1    0.0684   1.032   107.4    69.0    15.8
2006 05 13    14 21.91   +56 50.1    0.0472   1.023   104.0    73.5    15.1
2006 05 15    12 14.41   +56 07.9    0.0278   1.014    94.9    83.5    14.3
2006 05 17    08 28.17   +21 54.2    0.0176   1.005    68.2   110.9    14.6
2006 05 19    06 35.43   -19 54.3    0.0292   0.996    58.0   120.6    16.3
2006 05 21    05 51.98   -32 40.6    0.0489   0.989    60.3   117.3    17.2
2006 05 23    05 30.53   -37 34.1    0.0702   0.981    62.0   114.4    17.7
2006 05 25    05 17.91   -40 00.1    0.0919   0.975    63.1   112.1    18.2

Timothy B. Spahr             (C) Copyright 2006 MPC           M.P.E.C. 2006-G37

Read MPEC 2006-G36 Read MPEC 2006-G38


Our Web policy. Index to the CBAT/MPC/ICQ pages.


Valid HTML 4.01!